This demonstration page uses our WeatherBlox Daily Observations layout. Learn more.

Left ArrowRight Arrow

44.8408, -93.29828

Hourly Observations for March 29, 2017

Temp ( °F °C ) Dew Point ( °F °C ) Humidity (%) Winds ( mph kmh ) Pressure ( in mb ) Visibility ( mi km ) Precip ( " mm )
12:53 am 00:53 Mostly Cloudy 46 7.8 34 1.1 63 63 Calm 30.19 1022 10 16 0.00 0.00
1:53 am 01:53 Mostly Cloudy 44 6.7 34 1.1 68 68 ENE 3 6 30.19 1022 10 16 0.00 0.00
2:53 am 02:53 Mostly Cloudy 42 5.6 32 0 68 68 Calm 30.21 1023 10 16 0.00 0.00
3:53 am 03:53 Cloudy 43 6.1 33 0.6 68 68 Calm 30.20 1023 10 16 0.00 0.00
4:53 am 04:53 Cloudy 45 7.2 30 -1.1 56 56 ESE 6 9 30.20 1023 10 16 0.00 0.00
5:53 am 05:53 Cloudy 45 7.2 32 0 61 61 ESE 8 13 30.21 1023 10 16 0.00 0.00
6:53 am 06:53 Cloudy 45 7.2 32 0 61 61 ESE 8 13 30.22 1023 10 16 0.00 0.00
7:53 am 07:53 Cloudy 45 7.2 33 0.6 63 63 SE 6 9 30.23 1024 10 16 0.00 0.00
8:53 am 08:53 Cloudy 46 7.8 33 0.6 61 61 SSE 5 7 30.25 1024 10 16 0.00 0.00
9:53 am 09:53 Cloudy 49 9.4 33 0.6 55 55 SE 8 13 30.25 1025 10 16 0.00 0.00
10:53 am 10:53 Cloudy 50 10 32 0 50 50 SSE 13 20 30.26 1025 10 16 0.00 0.00
11:53 am 11:53 Cloudy 50 10 33 0.6 52 52 SE 9 15 30.25 1025 10 16 0.00 0.00
12:53 pm 12:53 Cloudy 50 10 34 1.1 54 54 SE 9 15 30.24 1024 10 16 0.00 0.00
1:53 pm 13:53 Cloudy 50 10 34 1.1 54 54 SSE 15 24 30.22 1024 10 16 0.00 0.00
2:53 pm 14:53 Cloudy 50 10 34 1.1 54 54 SE 15 24 30.22 1023 10 16 0.00 0.00
3:53 pm 15:53 Cloudy 49 9.4 35 1.7 59 59 SE 16 26 30.19 1023 10 16 0.00 0.00
4:53 pm 16:53 Cloudy 48 8.9 36 2.2 63 63 SE 12 19 30.18 1022 10 16 0.00 0.00
5:53 pm 17:53 Cloudy 47 8.3 37 2.8 69 69 SSE 7 11 30.18 1022 10 16 0.00 0.00
6:06 pm 18:06 Cloudy 46 8 37 3 71 71 SSE 10 17 30.18 1022 10 16 0.00 0.00
6:25 pm 18:25 Cloudy with Light Rain 46 7.8 37 2.8 71 71 SE 13 20 30.15 1021 10 16 0.00 0.03
6:53 pm 18:53 Cloudy with Light Rain 45 7.2 38 3.3 77 77 SSE 9 15 30.18 1022 10 16 0.00 0.03
7:53 pm 19:53 Cloudy with Light Rain 45 7.2 39 3.9 80 80 SE 8 13 30.17 1022 10 16 0.00 0.03
8:33 pm 20:33 Cloudy with Light Rain 44 6.7 38 3.3 79 79 ESE 16 26 30.15 1021 10 16 0.00 0.03
8:53 pm 20:53 Cloudy with Light Rain 44 6.7 38 3.3 79 79 ESE 16 26 30.16 1021 10 16 0.00 0.03
9:53 pm 21:53 Cloudy 43 6.1 37 2.8 80 80 E 15 24 30.13 1020 10 16 0.00 0.03
10:53 pm 22:53 Cloudy 43 6.1 36 2.2 76 76 E 15 24 30.11 1020 10 16 0.00 0.00
10:55 pm 22:55 Cloudy 43 6.1 36 2.2 76 76 E 13 20 30.09 1019 10 16 0.00 0.00
11:53 pm 23:53 Cloudy 42 5.6 36 2.2 79 79 E 10 17 30.09 1019 10 16 0.00 0.00

Powered by AerisWeather